1501326001.13,17289,19.19,74262.3,21.51,-4.37,-6.09,0,*40
1501326002.37,17290,19.19,74256.5,21.53,-5.03,-7.05,0,*41
1501326003.61,17291,19.19,74258.8,21.59,-5.07,-7.05,0,*4E
1501326004.87,17292,19.19,74256.0,21.61,-4.77,-6.97,0,*4A
1501326006.13,17293,19.19,74258.8,21.63,-5.23,-7.65,0,*45
1501326007.38,17294,19.19,74256.8,21.63,-5.11,-7.35,0,*46
1501326008.6,17295,19.19,74260.0,21.63,-5.35,-8.03,0,*4B
1501326009.83,17296,19.19,74258.0,21.63,-4.89,-7.23,0,*43
1501326011.05,17297,19.19,74256.5,21.67,-3.11,-5.85,0,*4E
1501326012.3,17298,19.19,74258.0,21.69,-4.25,-7.27,0,*45
1501326013.55,17299,19.19,74260.8,21.69,-3.51,-6.35,0,*42
1501326014.78,17300,19.25,74260.3,21.71,-1.71,-5.15,0,*4B
1501326016.01,17301,19.19,74258.0,21.75,-1.29,-5.11,0,*47
1501326017.2,17302,19.19,74256.5,21.75,-0.81,-4.57,0,*74
1501326018.39,17303,19.19,74260.5,21.81,0.01,-3.35,0,*68
1501326019.62,17304,19.19,74254.3,21.81,-0.29,-3.47,0,*7D
1501326020.84,17305,19.19,74252.8,21.85,0.29,-2.27,0,*52
1501326022.08,17306,19.19,74254.5,21.85,-0.07,-2.03,0,*46
1501326023.27,17307,19.19,74252.8,21.87,-1.29,-2.87,0,*44
1501326024.49,17308,19.19,74254.5,21.89,-2.11,-3.23,0,*42
1501326025.71,17309,19.19,74252.0,21.89,-3.27,-4.01,0,*40
1501326026.92,17310,19.19,74254.3,21.89,-2.99,-3.67,0,*4B
1501326028.12,17311,19.19,74250.0,21.89,-4.49,-5.55,0,*46
1501326029.36,17312,19.19,74250.8,21.89,-5.81,-7.77,0,*42
1501326030.59,17313,19.19,74250.5,21.87,-6.81,-9.11,0,*40
1501326031.81,17314,19.19,74254.0,21.83,-6.35,-9.11,0,*4C
1501326033.06,17315,19.19,74252.8,21.79,-7.01,-9.57,0,*4C
1501326034.29,17316,19.19,74248.3,21.75,-5.77,-8.03,0,*40
1501326035.53,17317,19.19,74250.5,21.71,-4.85,-6.97,0,*4A
1501326036.81,17318,19.19,74252.8,21.69,-6.19,-7.65,0,*47
1501326038.05,17319,19.19,74250.5,21.65,-8.45,-9.37,0,*44
1501326039.3,17320,19.25,74250.8,21.63,-10.63,-10.23,0,*48
1501326040.53,17321,19.25,74248.8,21.57,-11.23,-10.05,0,*4F
1501326041.82,17322,19.19,74250.3,21.51,-11.59,-10.63,0,*47
1501326043.06,17323,19.19,74250.0,21.47,-9.61,-8.55,0,*4F
1501326044.3,17324,19.19,74244.8,21.47,-9.57,-8.75,0,*4F
1501326045.56,17325,19.19,74248.3,21.47,-10.45,-9.61,0,*71
1501326046.79,17326,19.19,74246.3,21.47,-9.75,-8.89,0,*4E
1501326048.04,17327,19.19,74242.5,21.47,-8.67,-7.69,0,*4C
1501326049.26,17328,19.19,74246.8,21.49,-8.25,-7.31,0,*46
1501326050.49,17329,19.19,74246.0,21.53,-7.99,-7.23,0,*47
1501326051.71,17330,19.19,74242.3,21.53,-9.37,-8.93,0,*41
1501326052.99,17331,19.19,74244.5,21.57,-7.69,-7.61,0,*43
1501326054.22,17332,19.19,74246.0,21.59,-6.93,-7.87,0,*42
1501326055.44,17333,19.19,74244.5,21.63,-6.47,-7.91,0,*44
1501326056.63,17334,19.19,74244.5,21.67,-6.69,-8.41,0,*49
1501326057.82,17335,19.19,74242.3,21.67,-6.81,-8.55,0,*4B
1501326059.04,17336,19.19,74246.0,21.67,-7.31,-9.05,0,*46
1501326060.22,17337,19.19,74246.0,21.67,-6.69,-8.75,0,*4D
1501326061.42,17338,19.19,74240.8,21.67,-6.13,-8.37,0,*49
1501326062.66,17339,19.19,74240.5,21.69,-6.19,-8.63,0,*4D
1501326063.89,17340,19.19,74244.3,21.71,-7.91,-10.57,0,*75
1501326065.12,17341,19.19,74240.8,21.67,-8.63,-11.63,0,*77
1501326066.37,17342,19.19,74242.8,21.65,-8.71,-11.85,0,*7D
1501326067.63,17343,19.19,74242.8,21.65,-8.55,-11.97,0,*79
1501326068.84,17344,19.19,74242.8,21.63,-7.11,-10.05,0,*7D
1501326070.05,17345,19.19,74242.5,21.61,-6.85,-9.23,0,*4E
1501326071.28,17346,19.19,74244.8,21.63,-7.39,-9.75,0,*4A
1501326072.52,17347,19.19,74244.0,21.61,-7.77,-9.79,0,*4F
1501326073.77,17348,19.19,74240.8,21.61,-7.27,-9.01,0,*4A
1501326075.02,17349,19.19,74246.3,21.61,-7.95,-9.67,0,*42
1501326076.25,17350,19.19,74244.3,21.61,-8.45,-10.27,0,*74
1501326077.46,17351,19.19,74242.0,21.59,-8.41,-10.05,0,*7A
1501326078.72,17352,19.25,74242.8,21.57,-8.37,-10.41,0,*76
1501326079.94,17353,19.19,74238.5,21.57,-6.55,-8.75,0,*43
1501326081.16,17354,19.19,74240.5,21.57,-6.81,-9.19,0,*46
1501326082.39,17355,19.19,74242.0,21.57,-6.47,-8.89,0,*45
1501326083.61,17356,19.19,74240.3,21.53,-6.59,-9.11,0,*4D
1501326084.81,17357,19.19,74242.8,21.53,-5.35,-7.49,0,*46
1501326086.05,17358,19.19,74242.3,21.57,-5.73,-7.87,0,*4D
1501326087.3,17359,19.19,74246.0,21.57,-5.97,-7.95,0,*45
1501326088.58,17360,19.19,74242.0,21.57,-5.85,-7.99,0,*40
1501326089.84,17361,19.25,74244.5,21.57,-5.55,-7.43,0,*4B
1501326091.09,17362,19.19,74246.0,21.57,-5.23,-6.77,0,*4F
1501326092.33,17363,19.19,74242.3,21.59,-5.77,-6.93,0,*4B
1501326093.53,17364,19.19,74242.0,21.59,-6.13,-7.19,0,*4E
1501326094.79,17365,19.19,74240.8,21.57,-7.27,-8.37,0,*44
1501326096.06,17366,19.19,74240.8,21.61,-8.51,-9.41,0,*4C
1501326097.29,17367,19.19,74240.0,21.63,-6.81,-7.61,0,*40
1501326098.51,17368,19.25,74242.5,21.63,-6.27,-6.85,0,*48
1501326099.74,17369,19.19,74242.0,21.63,-7.19,-7.99,0,*49
1501326100.97,17370,19.19,74242.0,21.63,-9.05,-9.61,0,*4B
1501326102.2,17371,19.25,74246.5,21.63,-8.97,-9.15,0,*43
1501326103.4,17372,19.19,74240.5,21.67,-7.15,-7.15,0,*4F
1501326104.61,17373,19.19,74244.5,21.67,-8.41,-8.51,0,*4F
1501326105.83,17374,19.19,74240.0,21.69,-8.63,-8.71,0,*44
1501326107.08,17375,19.19,74244.5,21.69,-9.19,-9.57,0,*4C
1501326108.3,17376,19.25,74244.3,21.71,-9.83,-10.45,0,*7E
1501326109.5,17377,19.19,74242.5,21.71,-9.31,-9.89,0,*4E
1501326110.7,17378,19.19,74244.5,21.71,-8.71,-9.67,0,*44
1501326111.91,17379,19.19,74244.5,21.71,-13.15,-14.29,0,*4B
1501326113.18,17380,19.19,74244.8,21.69,-14.01,-15.53,0,*4A
1501326114.44,17381,19.19,74246.0,21.65,-14.11,-15.85,0,*4D
1501326115.7,17382,19.19,74244.8,21.59,-13.61,-15.57,0,*4E
1501326116.95,17383,19.19,74246.8,21.57,-10.53,-12.65,0,*45
1501326118.15,17384,19.25,74246.3,21.53,-8.33,-10.89,0,*79
1501326119.41,17385,19.25,74246.8,21.57,-10.53,-13.97,0,*4F
1501326120.66,17386,19.19,74246.3,21.51,-8.59,-12.61,0,*71
1501326121.93,17387,19.19,74244.5,21.51,-7.01,-11.73,0,*72
1501326123.19,17388,19.25,74246.3,21.51,-5.81,-11.19,0,*7B
1501326124.44,17389,19.19,74242.3,21.51,-5.07,-11.11,0,*7C
1501326125.72,17390,19.19,74244.0,21.51,-5.19,-11.85,0,*76
1501326127.01,17391,19.25,74246.8,21.47,-5.07,-11.93,0,*78
1501326128.28,17392,19.25,74246.5,21.47,-4.01,-11.01,0,*77
1501326129.53,17393,19.19,74242.0,21.43,-4.61,-12.07,0,*71
1501326130.76,17394,19.19,74240.5,21.39,-4.53,-12.47,0,*7E
1501326131.96,17395,19.19,74240.3,21.37,-5.39,-13.69,0,*71
1501326133.16,17396,19.19,74240.3,21.29,-2.99,-11.19,0,*75
1501326134.44,17397,19.19,74242.8,21.27,-1.39,-9.45,0,*43
1501326135.68,17398,19.19,74242.0,21.27,-0.07,-8.11,0,*40
1501326136.86,17399,19.19,74244.0,21.25,-0.37,-8.55,0,*70
1501326138.05,17400,19.25,74244.3,21.21,0.95,-7.53,0,*5F
1501326139.26,17401,19.19,74244.5,21.21,-0.27,-9.19,0,*7A
1501326140.47,17402,19.19,74246.0,21.19,0.37,-8.25,0,*50
1501326141.72,17403,19.19,74246.8,21.19,0.71,-8.11,0,*54
1501326142.96,17404,19.25,74246.8,21.17,1.29,-7.43,0,*69
1501326144.16,17405,19.25,74246.3,21.13,2.73,-4.99,0,*64
1501326145.33,17406,19.19,74244.8,21.13,-0.61,-8.29,0,*7C
1501326146.59,17407,19.19,74242.8,21.07,-1.39,-9.61,0,*49
1501326147.84,17408,19.25,74248.8,21.03,-1.17,-9.41,0,*4C
1501326149.06,17409,19.25,74248.8,20.99,0.21,-8.25,0,*55
1501326150.27,17410,19.25,74248.3,20.95,0.17,-8.55,0,*53
1501326151.46,17411,19.25,74248.3,20.91,0.97,-7.19,0,*59
1501326152.67,17412,19.25,74250.0,20.91,1.05,-7.39,0,*62
1501326153.87,17413,19.19,74250.3,20.91,0.13,-8.89,0,*51
1501326155.09,17414,19.25,74250.0,20.81,-0.27,-9.23,0,*7C
1501326156.33,17415,19.25,74248.8,20.81,0.67,-8.03,0,*57
1501326157.54,17416,19.19,74250.3,20.77,0.09,-8.85,0,*6B
1501326158.74,17417,19.25,74248.8,20.75,0.17,-8.45,0,*5B
1501326159.99,17418,19.25,74252.5,20.73,0.91,-7.69,0,*5D
1501326161.22,17419,19.25,74250.0,20.73,1.41,-7.01,0,*6E
1501326162.49,17420,19.25,74250.8,20.69,2.59,-5.89,0,*67
1501326163.73,17421,19.25,74252.5,20.69,2.47,-6.09,0,*62
1501326164.99,17422,19.25,74252.8,20.69,0.71,-7.99,0,*5E
1501326166.21,17423,19.25,74254.5,20.67,0.33,-8.11,0,*58
1501326167.4,17424,19.25,74254.3,20.63,-0.41,-8.89,0,*72
1501326168.61,17425,19.25,74254.8,20.57,-0.41,-8.51,0,*71
1501326169.8,17426,19.25,74252.3,20.53,-0.73,-8.75,0,*71
1501326171.03,17427,19.25,74254.0,20.51,-0.03,-8.11,0,*47
1501326172.29,17428,19.25,74254.5,20.47,0.95,-7.35,0,*54
1501326173.53,17429,19.25,74254.5,20.49,-1.13,-9.61,0,*46
1501326174.76,17430,19.25,74254.8,20.43,-0.37,-9.15,0,*70
1501326176.0,17431,19.25,74252.5,20.39,-0.65,-9.49,0,*72
1501326177.21,17432,19.25,74256.0,20.37,0.71,-7.87,0,*5B
1501326178.45,17433,19.25,74254.0,20.35,0.91,-7.87,0,*56
1501326179.68,17434,19.25,74254.5,20.33,1.13,-7.83,0,*68
1501326180.92,17435,19.25,74252.5,20.31,-0.37,-9.57,0,*76
1501326182.16,17436,19.25,74256.3,20.25,-1.59,-10.79,0,*7D
1501326183.39,17437,19.25,74254.0,20.23,-1.05,-10.27,0,*78
1501326184.6,17438,19.25,74256.0,20.15,-0.69,-10.01,0,*4D
1501326185.79,17439,19.25,74254.5,20.15,-0.29,-9.93,0,*7B
1501326187.02,17440,19.25,74250.8,20.09,-1.17,-10.97,0,*78
1501326188.22,17441,19.25,74256.0,20.07,-0.45,-10.31,0,*4D
1501326189.44,17442,19.25,74254.0,20.03,-0.49,-10.67,0,*45
1501326190.67,17443,19.25,74254.8,20.03,0.71,-9.57,0,*59
1501326191.9,17444,19.25,74254.5,20.03,1.47,-8.81,0,*60
1501326193.13,17445,19.25,74254.5,20.01,2.05,-8.21,0,*6C
1501326194.36,17446,19.25,74254.0,20.01,1.47,-8.75,0,*6B
1501326195.58,17447,19.25,74254.8,19.99,1.55,-8.71,0,*66
1501326196.82,17448,19.25,74254.0,20.01,1.05,-9.45,0,*61
1501326198.03,17449,19.25,74258.0,19.99,0.71,-9.89,0,*59
1501326199.27,17450,19.25,74254.8,19.93,2.61,-7.77,0,*67
1501326200.53,17451,19.25,74254.0,19.93,2.43,-7.91,0,*6E
1501326201.76,17452,19.25,74258.3,19.93,2.25,-8.41,0,*6F
1501326203.02,17453,19.25,74256.0,19.93,1.71,-9.15,0,*6C
1501326204.26,17454,19.25,74258.5,19.93,2.47,-8.41,0,*6D
1501326205.47,17455,19.25,74258.0,19.93,2.31,-8.71,0,*6E
1501326206.68,17456,19.25,74258.3,19.91,1.21,-9.89,0,*6B
1501326207.9,17457,19.25,74260.0,19.89,1.05,-9.89,0,*65
1501326209.15,17458,19.25,74258.3,19.89,1.89,-8.81,0,*67
1501326210.39,17459,19.25,74258.3,19.89,2.95,-7.73,0,*6A
1501326211.63,17460,19.25,74260.5,19.89,2.01,-8.97,0,*68
1501326212.83,17461,19.25,74260.0,19.87,2.85,-8.17,0,*63
1501326214.04,17462,19.25,74258.8,19.89,2.35,-8.75,0,*61
1501326215.29,17463,19.25,74256.0,19.89,1.21,-10.31,0,*5F
1501326216.51,17464,19.25,74258.8,19.89,1.83,-9.71,0,*6C
1501326217.77,17465,19.25,74258.5,19.89,2.13,-9.49,0,*6C
1501326218.98,17466,19.25,74258.3,19.87,1.93,-9.75,0,*65
1501326220.18,17467,19.25,74260.3,19.87,3.19,-8.55,0,*67
1501326221.42,17468,19.25,74260.5,19.89,2.25,-10.05,0,*54
1501326222.66,17469,19.25,74260.5,19.87,0.83,-11.67,0,*60
1501326223.86,17470,19.25,74260.8,19.87,0.25,-12.43,0,*61
1501326225.09,17471,19.25,74260.8,19.85,-1.21,-14.23,0,*7A
1501326226.33,17472,19.25,74258.8,19.81,-0.49,-13.33,0,*44
1501326227.52,17473,19.25,74258.0,19.79,-0.29,-13.11,0,*44
1501326228.76,17474,19.25,74260.5,19.77,-0.73,-13.87,0,*4D
1501326229.98,17475,19.25,74258.3,19.71,-1.55,-14.93,0,*7D
1501326231.17,17476,19.25,74260.0,19.67,-0.11,-13.23,0,*44
1501326232.39,17477,19.25,74264.0,19.67,0.79,-12.29,0,*6D
1501326233.61,17478,19.25,74266.3,19.65,-0.07,-13.51,0,*7A
1501326234.85,17479,19.25,74260.8,19.63,-0.57,-14.01,0,*4A
1501326236.1,17480,19.25,74264.5,19.63,-0.23,-13.87,0,*46
1501326237.32,17481,19.25,74262.8,19.61,-0.19,-13.83,0,*48
1501326238.56,17482,19.25,74256.5,19.59,-0.69,-14.55,0,*4B
1501326239.79,17483,19.25,74264.0,19.55,-0.19,-13.79,0,*48
1501326241.01,17484,19.25,74262.8,19.57,-0.77,-14.75,0,*4E
1501326242.26,17485,19.25,74260.8,19.55,-1.47,-15.49,0,*71
1501326243.51,17486,19.25,74264.5,19.53,-1.95,-16.09,0,*7C
1501326244.74,17487,19.25,74264.3,19.49,-3.27,-17.79,0,*7B
1501326245.94,17488,19.25,74262.0,19.45,-4.09,-18.65,0,*71
1501326247.13,17489,19.25,74266.8,19.41,-4.37,-19.07,0,*7C
1501326248.36,17490,19.25,74264.3,19.37,-3.71,-18.11,0,*76
1501326249.61,17491,19.25,74264.3,19.33,-5.27,-19.81,0,*7E
1501326250.79,17492,19.25,74264.3,19.27,-4.45,-18.83,0,*7E
1501326251.99,17493,19.25,74264.8,19.23,-4.81,-18.99,0,*78
1501326253.21,17494,19.25,74266.0,19.23,-5.81,-19.99,0,*7F
1501326254.46,17495,19.25,74264.3,19.19,-6.23,-20.49,0,*7B
1501326255.71,17496,19.25,74266.8,19.13,-6.63,-20.59,0,*77
1501326256.94,17497,19.25,74266.3,19.07,-6.43,-20.19,0,*75
1501326258.22,17498,19.25,74266.5,19.01,-6.23,-19.57,0,*7A
1501326259.47,17499,19.25,74264.5,19.01,-6.47,-19.61,0,*7C
1501326260.69,17500,19.25,74260.3,18.97,-6.27,-19.17,0,*74
1501326261.89,17501,19.25,74262.0,18.93,-6.77,-19.51,0,*76
1501326263.14,17502,19.25,74262.0,18.91,-7.01,-19.37,0,*77
1501326264.39,17503,19.25,74260.3,18.87,-6.55,-18.55,0,*74
1501326265.67,17504,19.25,74262.0,18.87,-5.89,-17.45,0,*7F
1501326266.88,17505,19.25,74266.0,18.85,-5.55,-16.79,0,*73
1501326268.11,17506,19.25,74260.5,18.81,-5.61,-16.55,0,*7D
1501326269.33,17507,19.25,74260.5,18.81,-5.73,-16.55,0,*7F
1501326270.6,17508,19.25,74260.0,18.79,-6.63,-17.11,0,*74
1501326271.85,17509,19.25,74260.5,18.79,-6.39,-16.65,0,*78
1501326273.09,17510,19.25,74260.5,18.79,-6.51,-16.55,0,*7D
1501326274.32,17511,19.25,74260.0,18.77,-6.19,-15.99,0,*7D
1501326275.58,17512,19.25,74262.5,18.79,-5.55,-14.97,0,*74
1501326276.8,17513,19.25,74260.0,18.81,-5.69,-15.07,0,*75
1501326278.09,17514,19.25,74258.8,18.79,-5.85,-14.97,0,*7F
1501326279.3,17515,19.25,74262.3,18.81,-5.55,-14.33,0,*7A
1501326280.55,17516,19.25,74260.5,18.87,-5.43,-13.97,0,*71
1501326281.78,17517,19.25,74262.0,18.85,-5.77,-14.15,0,*78
1501326283.03,17518,19.25,74262.0,18.87,-6.13,-14.55,0,*70
1501326284.29,17519,19.25,74260.0,18.91,-6.51,-14.83,0,*7B
1501326285.51,17520,19.25,74260.8,18.89,-6.43,-14.43,0,*77
1501326286.75,17521,19.25,74258.3,18.91,-6.63,-14.65,0,*79
1501326288.0,17522,19.25,74260.8,18.91,-6.39,-14.05,0,*73
1501326289.22,17523,19.25,74258.8,18.91,-6.47,-13.93,0,*73
1501326290.46,17524,19.25,74256.3,18.91,-6.47,-13.83,0,*75
1501326291.69,17525,19.25,74258.3,18.91,-7.19,-14.37,0,*76
1501326292.94,17526,19.25,74258.5,18.95,-7.49,-14.51,0,*74
1501326294.18,17527,19.25,74258.0,18.93,-7.27,-14.05,0,*7A
1501326295.45,17528,19.25,74256.8,18.95,-7.35,-13.83,0,*79
1501326296.7,17529,19.25,74258.5,18.95,-6.97,-13.43,0,*7D
1501326297.95,17530,19.25,74252.0,18.95,-7.19,-13.29,0,*7E
1501326299.22,17531,19.25,74252.5,18.95,-8.03,-14.01,0,*76
1501326300.47,17532,19.25,74252.8,18.95,-8.25,-13.97,0,*79
1501326301.7,17533,19.25,74254.0,18.93,-8.07,-13.55,0,*70
1501326302.95,17534,19.25,74252.0,18.97,-9.37,-14.97,0,*78
1501326304.22,17535,19.25,74254.3,18.95,-9.61,-14.75,0,*74
1501326305.44,17536,19.25,74252.8,18.95,-10.09,-15.15,0,*46
1501326306.68,17537,19.25,74254.3,18.91,-11.11,-15.95,0,*43
1501326307.89,17538,19.25,74250.5,18.89,-10.49,-15.25,0,*42
1501326309.1,17539,19.25,74250.0,18.89,-11.11,-15.71,0,*4E
1501326310.33,17540,19.25,74252.3,18.85,-12.43,-17.11,0,*4C
1501326311.59,17541,19.25,74244.0,18.81,-11.77,-16.09,0,*45
1501326312.83,17542,19.25,74248.3,18.81,-11.77,-15.75,0,*4E
1501326314.11,17543,19.25,74244.5,18.79,-11.81,-15.85,0,*4E
1501326315.34,17544,19.25,74246.3,18.77,-13.29,-17.31,0,*4A
1501326316.62,17545,19.25,74240.5,18.75,-11.85,-15.21,0,*4E
1501326317.9,17546,19.25,74242.8,18.75,-11.85,-15.35,0,*48
1501326319.12,17547,19.25,74242.5,18.75,-11.19,-14.15,0,*4F
1501326320.35,17548,19.25,74246.8,18.75,-11.15,-13.69,0,*40
1501326321.55,17549,19.25,74242.5,18.77,-11.41,-13.65,0,*4E
1501326322.77,17550,19.25,74242.0,18.77,-10.35,-12.29,0,*4D
1501326323.98,17551,19.25,74242.8,18.77,-11.41,-12.93,0,*4F
1501326325.24,17552,19.25,74240.3,18.79,-11.89,-13.11,0,*4D
1501326326.47,17553,19.25,74242.5,18.81,-11.93,-12.89,0,*40
1501326327.73,17554,19.25,74236.8,18.79,-11.81,-12.47,0,*41
1501326328.96,17555,19.25,74240.3,18.81,-12.61,-12.93,0,*43
1501326330.19,17556,19.25,74240.5,18.81,-13.65,-13.97,0,*40
1501326331.45,17557,19.25,74238.5,18.85,-15.35,-15.43,0,*49
1501326332.66,17558,19.25,74240.3,18.85,-13.93,-13.55,0,*4D
1501326333.87,17559,19.25,74242.0,18.85,-15.15,-14.69,0,*4C
1501326335.1,17560,19.25,74242.3,18.85,-14.69,-14.01,0,*42
1501326336.36,17561,19.25,74242.0,18.87,-14.83,-14.15,0,*40
1501326337.59,17562,19.25,74242.3,18.85,-15.43,-14.61,0,*4F
1501326338.8,17563,19.25,74238.0,18.85,-14.29,-13.43,0,*44
1501326340.04,17564,19.25,74238.3,18.85,-14.47,-13.47,0,*4F
1501326341.29,17565,19.25,74236.5,18.87,-14.51,-13.43,0,*4F
1501326342.56,17566,19.25,74240.0,18.87,-14.55,-13.23,0,*4E
1501326343.84,17567,19.25,74238.0,18.91,-13.97,-12.61,0,*46
1501326345.08,17568,19.25,74238.0,18.91,-14.37,-12.89,0,*42
1501326346.33,17569,19.25,74238.3,18.93,-15.57,-14.01,0,*40
1501326347.58,17570,19.25,74240.0,18.93,-15.21,-13.33,0,*4F
1501326348.81,17571,19.25,74240.5,18.95,-14.15,-12.43,0,*48
1501326350.05,17572,19.25,74238.0,18.95,-12.97,-11.01,0,*42
1501326351.32,17573,19.25,74240.0,18.99,-13.79,-11.85,0,*42
1501326352.57,17574,19.25,74242.0,18.99,-15.35,-13.23,0,*45
1501326353.84,17575,19.25,74246.0,18.99,-14.79,-12.65,0,*4E
1501326355.08,17576,19.25,74242.0,18.99,-15.99,-13.79,0,*4E
1501326356.33,17577,19.25,74240.0,18.99,-14.37,-11.97,0,*48
1501326357.59,17578,19.25,74240.5,18.99,-15.35,-13.19,0,*40
1501326358.84,17579,19.25,74242.5,19.01,-15.35,-12.93,0,*42
1501326360.1,17580,19.25,74246.3,18.99,-12.97,-10.71,0,*45
1501326361.33,17581,19.25,74244.0,19.03,-12.35,-10.09,0,*41
1501326362.59,17582,19.25,74242.3,19.07,-12.75,-10.71,0,*4D
1501326363.84,17583,19.25,74240.0,19.09,-13.93,-11.73,0,*48
1501326365.09,17584,19.25,74244.8,19.09,-11.41,-9.11,0,*7F
1501326366.36,17585,19.25,74244.0,19.13,-11.59,-9.41,0,*79
1501326367.61,17586,19.25,74244.3,19.17,-10.63,-8.41,0,*77
1501326368.82,17587,19.25,74246.3,19.21,-10.93,-8.63,0,*7C
1501326370.08,17588,19.25,74246.3,19.21,-12.35,-10.01,0,*40
1501326371.3,17589,19.25,74248.0,19.23,-13.37,-11.19,0,*48
1501326372.54,17590,19.25,74248.5,19.23,-14.51,-12.29,0,*47
1501326373.79,17591,19.31,74252.0,19.21,-13.07,-10.79,0,*47
1501326375.04,17592,19.25,74250.5,19.21,-12.65,-10.35,0,*49
1501326376.29,17593,19.25,74248.5,19.25,-11.77,-9.67,0,*73
1501326377.54,17594,19.25,74248.8,19.25,-12.97,-10.75,0,*42
1501326378.77,17595,19.25,74250.3,19.25,-12.25,-10.09,0,*41
1501326379.96,17596,19.25,74248.8,19.27,-11.11,-8.97,0,*7A
1501326381.16,17597,19.25,74250.3,19.31,-11.23,-8.93,0,*79
1501326382.41,17598,19.25,74252.8,19.35,-11.29,-8.97,0,*7C
1501326383.63,17599,19.25,74254.5,19.37,-10.41,-8.25,0,*79
1501326384.85,17600,19.25,74250.3,19.39,-10.05,-7.87,0,*73
1501326386.08,17601,19.25,74252.5,19.43,-12.03,-9.79,0,*74
1501326387.33,17602,19.25,74250.5,19.43,-12.35,-9.97,0,*72
1501326388.58,17603,19.25,74254.0,19.43,-13.69,-11.33,0,*4C
1501326389.87,17604,19.25,74254.3,19.43,-14.05,-11.85,0,*4B
1501326391.13,17605,19.25,74252.3,19.43,-13.19,-10.75,0,*4E
1501326392.39,17606,19.25,74254.5,19.43,-13.01,-10.53,0,*40
1501326393.65,17607,19.25,74252.3,19.43,-13.01,-10.49,0,*4A
1501326394.9,17608,19.25,74252.5,19.43,-13.93,-11.37,0,*46
1501326396.18,17609,19.25,74252.3,19.43,-13.83,-11.33,0,*42
1501326397.41,17610,19.25,74252.8,19.43,-13.43,-10.93,0,*4D
1501326398.64,17611,19.25,74256.0,19.43,-11.15,-8.85,0,*73
1501326399.92,17612,19.25,74254.8,19.43,-11.73,-9.37,0,*78
1501326401.2,17613,19.25,74256.5,19.47,-13.97,-11.59,0,*44
1501326402.4,17614,19.25,74260.0,19.45,-13.65,-11.19,0,*48
1501326403.66,17615,19.25,74258.5,19.47,-14.23,-11.85,0,*4B
1501326404.9,17616,19.25,74254.5,19.45,-14.47,-12.03,0,*45
1501326406.18,17617,19.25,74256.8,19.43,-15.01,-12.75,0,*40
1501326407.43,17618,19.25,74260.3,19.41,-15.81,-13.61,0,*41
1501326408.65,17619,19.25,74262.8,19.37,-15.99,-13.83,0,*44
1501326409.88,17620,19.25,74256.8,19.33,-16.27,-14.23,0,*41
1501326411.11,17621,19.25,74256.8,19.33,-15.25,-13.37,0,*43
1501326412.33,17622,19.25,74260.0,19.27,-14.93,-13.11,0,*4D
1501326413.59,17623,19.25,74260.3,19.27,-14.43,-12.71,0,*46
1501326414.84,17624,19.25,74258.3,19.25,-13.55,-11.85,0,*4B
1501326416.07,17625,19.25,74260.3,19.25,-11.45,-9.93,0,*77
1501326417.32,17626,19.25,74260.8,19.27,-11.81,-10.41,0,*49
1501326418.58,17627,19.25,74260.5,19.27,-12.07,-10.75,0,*42
1501326419.77,17628,19.25,74260.3,19.31,-10.23,-9.05,0,*71
1501326420.95,17629,19.25,74260.5,19.31,-10.53,-9.31,0,*70
1501326422.2,17630,19.25,74260.8,19.35,-11.85,-11.15,0,*49
1501326423.44,17631,19.25,74258.3,19.33,-13.37,-12.89,0,*43
1501326424.66,17632,19.25,74262.5,19.27,-13.69,-13.29,0,*45
1501326425.94,17633,19.25,74260.5,19.25,-14.01,-13.87,0,*4B
1501326427.17,17634,19.31,74264.3,19.23,-13.29,-13.19,0,*40
1501326428.4,17635,19.25,74264.5,19.19,-12.11,-12.21,0,*48
1501326429.63,17636,19.25,74260.0,19.17,-11.15,-11.45,0,*43
1501326430.83,17637,19.25,74260.8,19.15,-10.19,-10.89,0,*4C
1501326432.04,17638,19.25,74262.8,19.15,-9.53,-10.49,0,*79
1501326433.29,17639,19.25,74264.5,19.13,-9.45,-10.53,0,*72
1501326434.58,17640,19.25,74264.3,19.13,-9.15,-10.79,0,*71
1501326435.82,17641,19.25,74264.5,19.11,-9.49,-11.51,0,*70
1501326437.07,17642,19.25,74264.5,19.09,-9.01,-11.37,0,*76
1501326438.28,17643,19.25,74266.5,19.07,-8.71,-11.45,0,*7A
1501326439.52,17644,19.25,74264.0,19.01,-8.33,-11.37,0,*78
1501326440.77,17645,19.25,74262.0,19.01,-7.69,-11.11,0,*7D
1501326442.0,17646,19.25,74266.5,18.97,-7.87,-11.67,0,*71
1501326443.23,17647,19.25,74262.3,18.93,-7.53,-11.63,0,*79
1501326444.45,17648,19.25,74266.8,18.91,-7.53,-12.21,0,*71
1501326445.71,17649,19.25,74266.5,18.89,-7.57,-12.53,0,*78
1501326446.93,17650,19.25,74264.5,18.81,-7.99,-13.51,0,*79
1501326448.15,17651,19.25,74264.0,18.77,-7.69,-13.43,0,*7D
1501326449.38,17652,19.25,74268.8,18.73,-7.57,-13.73,0,*74
1501326450.6,17653,19.25,74268.8,18.67,-7.11,-13.79,0,*78
1501326451.79,17654,19.25,74266.5,18.63,-7.23,-14.15,0,*77
1501326453.04,17655,19.25,74268.3,18.57,-6.13,-13.37,0,*74
1501326454.29,17656,19.25,74268.3,18.55,-6.93,-14.55,0,*7E
1501326455.55,17657,19.25,74266.8,18.49,-7.43,-15.53,0,*79
1501326456.8,17658,19.25,74268.5,18.41,-7.11,-15.35,0,*79
1501326458.03,17659,19.25,74266.8,18.35,-6.81,-15.15,0,*71
1501326459.3,17660,19.25,74270.3,18.31,-4.89,-13.33,0,*77
1501326460.49,17661,19.25,74266.5,18.29,-4.33,-13.07,0,*79
1501326461.72,17662,19.25,74270.8,18.23,-4.09,-12.93,0,*75
1501326462.94,17663,19.25,74270.8,18.25,-4.93,-14.23,0,*7C
1501326464.18,17664,19.25,74270.8,18.19,-4.81,-14.33,0,*76
1501326465.41,17665,19.25,74272.0,18.17,-4.37,-14.01,0,*75
1501326466.66,17666,19.25,74270.3,18.11,-3.71,-13.55,0,*73
1501326467.91,17667,19.25,74270.8,18.07,-4.99,-14.93,0,*79
1501326469.14,17668,19.25,74268.5,18.05,-4.57,-14.93,0,*76
1501326470.42,17669,19.25,74268.3,18.01,-4.01,-14.47,0,*79
1501326471.65,17670,19.25,74270.0,17.97,-3.91,-14.37,0,*78
1501326472.84,17671,19.25,74270.8,17.95,-3.19,-13.69,0,*77
1501326474.03,17672,19.25,74270.5,17.91,-3.11,-13.73,0,*73
1501326475.25,17673,19.25,74270.0,17.87,-3.23,-14.01,0,*76
1501326476.46,17674,19.25,74266.8,17.87,-4.05,-15.07,0,*75
1501326477.69,17675,19.25,74268.5,17.85,-4.57,-15.71,0,*70
1501326478.93,17676,19.25,74268.3,17.79,-6.23,-17.79,0,*7B
1501326480.16,17677,19.25,74272.5,17.75,-5.11,-16.59,0,*77
1501326481.36,17678,19.25,74270.3,17.69,-4.41,-15.95,0,*72
1501326482.58,17679,19.25,74274.3,17.69,-4.37,-15.81,0,*77
1501326483.78,17680,19.31,74276.5,17.65,-4.33,-16.03,0,*70
1501326485.02,17681,19.25,74270.0,17.63,-3.83,-15.53,0,*7D
1501326486.27,17682,19.25,74272.5,17.59,-4.33,-16.23,0,*7F
1501326487.5,17683,19.25,74268.8,17.57,-4.01,-15.67,0,*72
1501326488.7,17684,19.25,74272.8,17.57,-3.87,-15.67,0,*7C
1501326489.91,17685,19.25,74272.3,17.53,-3.83,-15.71,0,*7A
1501326491.12,17686,19.25,74274.8,17.53,-4.85,-16.93,0,*77
1501326492.37,17687,19.25,74274.5,17.49,-4.89,-17.03,0,*79
1501326493.64,17688,19.25,74270.0,17.43,-4.73,-16.69,0,*74
1501326494.87,17689,19.25,74274.0,17.43,-4.61,-16.75,0,*7B
1501326496.09,17690,19.25,74268.0,17.41,-5.15,-17.49,0,*7D
1501326497.38,17691,19.25,74272.5,17.39,-4.01,-16.09,0,*72
1501326498.64,17692,19.25,74270.3,17.39,-4.77,-17.17,0,*7E
1501326499.91,17693,19.25,74272.5,17.35,-5.31,-17.63,0,*73
1501326501.13,17694,19.25,74272.8,17.35,-4.45,-16.83,0,*79
1501326502.35,17695,19.25,74272.8,17.35,-4.45,-16.75,0,*71
1501326503.56,17696,19.25,74274.3,17.33,-3.75,-15.99,0,*71
1501326504.78,17697,19.25,74272.5,17.33,-2.95,-15.01,0,*7E